STARLINK-34055, 63819

Orbit data source: Space-Track

STARLINK-34055, 63819 is a payload satellite owned by SpaceX/Seattle (US) in LEO that was launched on Sun, 04 May 2025 UTC via an FALCON 9 launch vehicle from the Air Force Eastern Test Range (AFETR). Payload-class satellites include a variety of spacecraft equipped with specific instruments for various scientific and technological missions. These include communications satellites like Starlink; space stations such as the ISS; scientific satellites like the Hubble; Earth observation satellites from companies like Planet Labs, Umbra, and HawkEye 360; GPS; miniature CubeSats for education and research; and military/defense satellites.

Loading next visibility...
Identifier
63819, 2025-092R
Orbit
LEO
Last TLE update
6 hours ago
Origin
Manufacturer
SpaceX/Seattle
Mission
Operational Commercial Communications
Bus & Motor
STARLINK V2MO, Unknown motor
Mass
575 kg wet, ~530 kg dry
Launch date (UTC)
2025-05-04 (2 months ago)
Launch vehicle
FALCON 9
Launch site
Air Force Eastern Test Range (AFETR)
Object type
Payload
Rocket body
Debris
Shape & HBR
Box + 1 Pan, 29 m
Radar Cross Section
41.120 m², Large (>1 m²)

Expand to show TLE details & history

TLE from 6 hours ago
0 STARLINK-34055
1 63819U 25092R   25182.94652602  .00014195  00000-0  52397-3 0  9996
2 63819  42.9994 148.8552 0001771 268.8747  91.1902 15.27604768 10264
Epoch: 2025-07-01T22:42Z
TLE epoch observation values (Epoch: 2025-07-01T22:42:59.848Z)
Latitude
0.00002°
Longitude
-112.12883°
Altitude
482.776 km
Speed
7.626 km/s
True Right ascension
09h 55m 25s
True Declination
0° 00' 00"
Sunlit
Object was in daylight at epoch
Visualization orbit readout
Latitude
29.38592°
Longitude
-76.74229°
Altitude
484.291 km
Speed
7.627 km/s
Apparent Right ascension
09h 08m 02s
Apparent Declination
-6° 36' 32"
Sunlit
Object is in daylight
Visualization observer readout
Local Sidereal Time
16:53:06
Azimuth
282.274° WNW
Elevation
-24.269°
Doppler factor
1
Orbital elements
Apogee altitude
486.136 km
Perigee altitude
483.705 km
Semi-major axis
6,863.057 km
Eccentricity
0.00018
Inclination
42.9994°
RAAN
148.8552°
Arg. of periapsis
268.8747°
True anomaly
Unknown
Mean anomaly
91.1902°
Eccentric anomaly
Unknown
Mean motion
3.81739 °/min
Orbital period
94.31 mins
BSTAR
0.00052397
Loading maneuver chart data...
Loading SW <> Apogee altitude chart data...
Loading historical data...
Loading historical data...
Loading historical data...
Loading historical data...
Loading historical data...
Loading historical data...
Loading historical data...

STARLINK-34055 Visibility forecast

Observer location: undefined°, undefined°

Span
Click to sort rows by Start time (UTC) header in descending order
Start Az.
Max El. time (UTC)
Max El. Az.
Max El.
End time (UTC)
End Az.
7 mins2025-07-02 05:23:34.533Z289.475° WNW2025-07-02 05:27:34.533Z66.02° ENE41.216°2025-07-02 05:30:34.533Z98.674° ESE
5 mins2025-07-02 07:03:34.533Z266.719° W2025-07-02 07:05:34.533Z222.383° SW28.485°2025-07-02 07:08:34.533Z150.705° SSE
6 mins2025-07-03 01:38:34.533Z240.786° WSW2025-07-03 01:40:34.533Z214.431° SW41.66°2025-07-03 01:44:34.533Z73.911° E
6 mins2025-07-03 03:17:34.533Z283.242° WNW2025-07-03 03:20:34.533Z25.09° NE36.986°2025-07-03 03:23:34.533Z73.242° E
5 mins2025-07-03 04:57:34.533Z296.288° NW2025-07-03 04:59:34.533Z47.494° ENE42.565°2025-07-03 05:02:34.533Z97.571° ESE
|